This is the latest recevied weather packets stored in our database for station/object CA3VLN-10. If no packets are shown the sender has not sent any weather packets the latest 10 day(s).
| Time | Temp. | Humidity | Pressure | Rain* | Wind** | Luminosity | Snow |
|---|---|---|---|---|---|---|---|
| 1787414301 | 27.78° C | 28% | 1005.1 hPa | - | - | - | - |
| 1787413401 | 27.22° C | 28% | 1005.3 hPa | - | - | - | - |
| 1787412501 | 27.22° C | 29% | 1005.3 hPa | - | - | - | - |
| 1787411601 | 27.22° C | 28% | 1005.3 hPa | - | - | - | - |
| 1787410701 | 26.67° C | 29% | 1005.4 hPa | - | - | - | - |
| 1787409801 | 26.11° C | 29% | 1005.5 hPa | - | - | - | - |
| 1787408900 | 25° C | 31% | 1005.5 hPa | - | - | - | - |
| 1787408000 | 23.89° C | 32% | 1005.8 hPa | - | - | - | - |
| 1787407100 | 23.89° C | 33% | 1005.8 hPa | - | - | - | - |
| 1787406200 | 22.78° C | 34% | 1005.6 hPa | - | - | - | - |
| 1787405300 | 22.22° C | 34% | 1005.4 hPa | - | - | - | - |
| 1787404400 | 21.67° C | 35% | 1005.4 hPa | - | - | - | - |
| 1787403500 | 21.11° C | 35% | 1005.3 hPa | - | - | - | - |
| 1787402600 | 20.56° C | 36% | 1005.3 hPa | - | - | - | - |
| 1787401699 | 20° C | 36% | 1005.3 hPa | - | - | - | - |
| 1787400799 | 19.44° C | 36% | 1005.2 hPa | - | - | - | - |
| 1787399899 | 18.89° C | 38% | 1005.2 hPa | - | - | - | - |
| 1787398999 | 18.89° C | 38% | 1005.3 hPa | - | - | - | - |
| 1787398099 | 18.89° C | 38% | 1005.2 hPa | - | - | - | - |
| 1787397199 | 18.33° C | 39% | 1005 hPa | - | - | - | - |
| 1787396299 | 18.33° C | 38% | 1005 hPa | - | - | - | - |
| 1787395399 | 18.89° C | 38% | 1004.9 hPa | - | - | - | - |
| 1787394499 | 18.89° C | 38% | 1004.8 hPa | - | - | - | - |
| 1787393599 | 18.89° C | 39% | 1004.8 hPa | - | - | - | - |
| 1787392698 | 18.89° C | 38% | 1004.8 hPa | - | - | - | - |
* Rain since midnight (hover to see other rain measurements)
** Current wind speed in m/s (hover to see current wind gust speed)